Weather History for KBNL - December, 2012

Change the Weather History Date:

Thursday, December 6, 2012

  Actual Average (KOGB) Record (KOGB)
Temperature  
Mean Temperature 58 °F 50 °F  
Max Temperature 64 °F 61 °F 81 °F (2013)
Min Temperature 51 °F 39 °F 23 °F (2010)
Degree Days  
Heating Degree Days 8 15  
Month to date heating degree days 87  
Since 1 July heating degree days 456  
Cooling Degree Days 0 0  
Month to date cooling degree days 0  
Year to date cooling degree days 2102  
Growing Degree Days 8 (Base 50)    
Moisture  
Dew Point 50 °F    
Average Humidity 79    
Maximum Humidity 100    
Minimum Humidity 52    
Precipitation  
Precipitation 0.00 in 0.10 in 1.30 in (1972)
Month to date precipitation 0.77  
Year to date precipitation 44.18  
Sea Level Pressure  
Sea Level Pressure 30.16 in    
Wind  
Wind Speed 5 mph (NE)    
Max Wind Speed 13 mph    
Max Gust Speed -    
Visibility 9 miles    
Events      
T = Trace of Precipitation, MM = Missing Value Source: NWS Daily Summary

Daily Weather History Graph

Daily Weather History Graph

Search for Another Location

Airport or City:

Trip Planner

Search our weather history database for the weather conditions in past years. The results will help you decide how hot, cold, wet, or windy it might be!

Date:

Astronomy

Dec. 06, 2012 Rise Set
Actual Time 7:15 AM EST 5:18 PM EST
Civil Twilight 6:48 AM EST 5:45 PM EST
Nautical Twilight 6:17 AM EST 6:16 PM EST
Astronomical Twilight 5:47 AM EST 6:46 PM EST
Moon No Moon Rise 12:24 PM EST (12/6)
Length of Visible Light 10h 56m
Length of Day
10h 02m
Waning Gibbous, 49% of the Moon is Illuminated
Dec 6
Waning Gibbous
Dec 13
New
Dec 20
First Quarter
Dec 28
Full
Jan 4
Last Quarter

Hourly Weather History & Observations

Time (EST) Temp. Dew Point Humidity Pressure Visibility Wind Dir Wind Speed Gust Speed Precip Events Conditions
12:15 AM 60.8 °F 55.4 °F 82% 30.15 in 10.0 mi Calm Calm - N/A   Clear
12:35 AM 59.0 °F 55.4 °F 88% 30.15 in 10.0 mi Calm Calm - N/A   Clear
12:55 AM 59.0 °F 55.4 °F 88% 30.14 in 10.0 mi Calm Calm - N/A   Clear
1:15 AM 57.2 °F 55.4 °F 94% 30.14 in 10.0 mi Calm Calm - N/A   Clear
1:35 AM 57.2 °F 55.4 °F 94% 30.14 in 10.0 mi Calm Calm - N/A   Clear
1:55 AM 55.4 °F 55.4 °F 100% 30.15 in 10.0 mi Calm Calm - N/A   Scattered Clouds
2:15 AM 55.4 °F 53.6 °F 94% 30.15 in 9.0 mi Calm Calm - N/A   Mostly Cloudy
2:35 AM 55.4 °F 55.4 °F 100% 30.16 in 9.0 mi Calm Calm - N/A   Partly Cloudy
2:55 AM 55.4 °F 55.4 °F 100% 30.15 in 10.0 mi NE 4.6 mph - N/A   Clear
3:15 AM 57.2 °F 53.6 °F 88% 30.15 in 10.0 mi NE 4.6 mph - N/A   Clear
3:35 AM 55.4 °F 53.6 °F 94% 30.15 in 10.0 mi NE 4.6 mph - N/A   Clear
3:55 AM 55.4 °F 53.6 °F 94% 30.14 in 10.0 mi NE 4.6 mph - N/A   Clear
4:15 AM 55.4 °F 53.6 °F 94% 30.14 in 10.0 mi NE 4.6 mph - N/A   Partly Cloudy
4:35 AM 55.4 °F 53.6 °F 94% 30.14 in 10.0 mi NE 4.6 mph - N/A   Mostly Cloudy
4:55 AM 55.4 °F 53.6 °F 94% 30.14 in 10.0 mi NE 3.5 mph - N/A   Overcast
5:15 AM 55.4 °F 53.6 °F 94% 30.15 in 10.0 mi NNE 4.6 mph - N/A   Overcast
5:35 AM 55.4 °F 51.8 °F 88% 30.15 in 10.0 mi NNE 6.9 mph - N/A   Overcast
5:55 AM 55.4 °F 51.8 °F 88% 30.15 in 10.0 mi NNE 4.6 mph - N/A   Overcast
6:15 AM 55.4 °F 51.8 °F 88% 30.15 in 10.0 mi NNE 6.9 mph - N/A   Overcast
6:35 AM 55.4 °F 51.8 °F 88% 30.16 in 10.0 mi NE 4.6 mph - N/A   Overcast
6:55 AM 55.4 °F 51.8 °F 88% 30.17 in 10.0 mi NNE 5.8 mph - N/A   Overcast
7:15 AM 55.4 °F 51.8 °F 88% 30.17 in 10.0 mi NNE 6.9 mph - N/A   Overcast
7:35 AM 55.4 °F 53.6 °F 94% 30.18 in 10.0 mi NE 6.9 mph - N/A   Overcast
7:55 AM 57.2 °F 53.6 °F 88% 30.18 in 10.0 mi NE 5.8 mph - N/A   Overcast
8:15 AM 57.2 °F 53.6 °F 88% 30.19 in 10.0 mi NE 5.8 mph - N/A   Overcast
8:55 AM 57.2 °F 55.4 °F 94% 30.20 in 4.0 mi NE 8.1 mph - N/A   Overcast
9:15 AM 57.2 °F 55.4 °F 94% 30.21 in 2.5 mi NE 8.1 mph - N/A   Overcast
9:35 AM 57.2 °F 55.4 °F 94% 30.21 in 1.5 mi NE 8.1 mph - N/A   Overcast
9:55 AM 55.4 °F 55.4 °F 100% 30.21 in 1.8 mi NE 8.1 mph - N/A   Overcast
10:15 AM 55.4 °F 55.4 °F 100% 30.21 in 2.5 mi NNE 9.2 mph - N/A   Overcast
10:35 AM 55.4 °F 55.4 °F 100% 30.21 in 2.5 mi NE 8.1 mph - N/A   Overcast
10:55 AM 55.4 °F 55.4 °F 100% 30.21 in 2.0 mi NNE 9.2 mph - N/A   Overcast
11:15 AM 55.4 °F 55.4 °F 100% 30.20 in 5.0 mi NE 9.2 mph - N/A   Overcast
11:35 AM 55.4 °F 53.6 °F 94% 30.20 in 7.0 mi NNE 10.4 mph - N/A   Overcast
11:55 AM 57.2 °F 53.6 °F 88% 30.20 in 7.0 mi ENE 9.2 mph - N/A   Overcast
12:15 PM 57.2 °F 53.6 °F 88% 30.19 in 10.0 mi ENE 10.4 mph - N/A   Overcast
12:35 PM 57.2 °F 53.6 °F 88% 30.18 in 10.0 mi NE 6.9 mph - N/A   Overcast
12:55 PM 59.0 °F 53.6 °F 82% 30.17 in 10.0 mi NE 5.8 mph - N/A   Overcast
1:15 PM 60.8 °F 51.8 °F 72% 30.16 in 10.0 mi ENE 6.9 mph - N/A   Overcast
2:15 PM 62.6 °F 48.2 °F 59% 30.14 in 10.0 mi NNE 9.2 mph - N/A   Overcast
2:35 PM 64.4 °F 46.4 °F 52% 30.14 in 10.0 mi NNE 8.1 mph - N/A   Mostly Cloudy
2:55 PM 64.4 °F 46.4 °F 52% 30.13 in 10.0 mi NNE 8.1 mph - N/A   Mostly Cloudy
3:15 PM 64.4 °F 46.4 °F 52% 30.13 in 10.0 mi NE 10.4 mph - N/A   Overcast
3:35 PM 64.4 °F 46.4 °F 52% 30.14 in 10.0 mi NE 8.1 mph - N/A   Overcast
3:55 PM 62.6 °F 46.4 °F 55% 30.14 in 10.0 mi NNE 8.1 mph - N/A   Overcast
4:15 PM 62.6 °F 46.4 °F 55% 30.14 in 10.0 mi NNE 8.1 mph - N/A   Overcast
4:35 PM 62.6 °F 46.4 °F 55% 30.15 in 10.0 mi NNE 6.9 mph - N/A   Overcast
4:55 PM 62.6 °F 46.4 °F 55% 30.14 in 10.0 mi NNE 8.1 mph - N/A   Overcast
5:15 PM 62.6 °F 46.4 °F 55% 30.14 in 10.0 mi NE 6.9 mph - N/A   Scattered Clouds
5:35 PM 60.8 °F 46.4 °F 59% 30.14 in 10.0 mi NE 5.8 mph - N/A   Scattered Clouds
5:55 PM 60.8 °F 48.2 °F 63% 30.14 in 10.0 mi NE 6.9 mph - N/A   Mostly Cloudy
6:15 PM 60.8 °F 48.2 °F 63% 30.15 in 10.0 mi NNE 10.4 mph - N/A   Mostly Cloudy
6:35 PM 59.0 °F 46.4 °F 63% 30.15 in 10.0 mi NE 11.5 mph - N/A   Overcast
7:15 PM 57.2 °F 44.6 °F 63% 30.17 in 10.0 mi NE 12.7 mph - N/A   Overcast
8:15 PM 55.4 °F 42.8 °F 63% 30.18 in 10.0 mi NE 9.2 mph - N/A   Overcast
8:35 PM 55.4 °F 42.8 °F 63% 30.18 in 10.0 mi NE 9.2 mph - N/A   Overcast
8:55 PM 53.6 °F 42.8 °F 67% 30.19 in 10.0 mi NE 9.2 mph - N/A   Overcast
9:15 PM 53.6 °F 42.8 °F 67% 30.18 in 10.0 mi NE 9.2 mph - N/A   Overcast
9:35 PM 53.6 °F 41.0 °F 62% 30.18 in 10.0 mi NE 9.2 mph - N/A   Overcast
9:55 PM 53.6 °F 41.0 °F 62% 30.18 in 10.0 mi NE 9.2 mph - N/A   Overcast
10:15 PM 53.6 °F 41.0 °F 62% 30.17 in 10.0 mi ENE 8.1 mph - N/A   Mostly Cloudy
10:35 PM 51.8 °F 41.0 °F 67% 30.17 in 10.0 mi NE 3.5 mph - N/A   Overcast
10:55 PM 51.8 °F 41.0 °F 67% 30.16 in 10.0 mi East 5.8 mph - N/A   Overcast
11:15 PM 51.8 °F 41.0 °F 67% 30.16 in 10.0 mi ENE 6.9 mph - N/A   Overcast